When you browse on this site, cookies collect data to enhance your experience and personalize the content and advertising you see.
Visit our Privacy Policy to learn more. By continuing to use the site, you agree to this use of cookies and data.
  • în România
  • Lista ţărilor
  • Pe 7 zile
  • Temperatura apei
  • Meteo pe hartă
  • Widget-uri
  • user-avatar
    Intrare

    Meteo pe oră la Pirr

    Astăzi, 6 Aprilie, Luni

    Timp Temperatura Precipitaţii Vânt Presiune Umiditate
    00:00 +11°C° 0 mm 4 m/s 712 mmHg 72%
    01:00 +10°C° 0 mm 4 m/s 712 mmHg 75%
    02:00 +10°C° 0 mm 3 m/s 712 mmHg 78%
    03:00 +10°C° 0 mm 3 m/s 712 mmHg 80%
    04:00 +9°C° 0 mm 2 m/s 712 mmHg 82%
    05:00 +8°C° 0 mm 2 m/s 712 mmHg 85%
    06:00 +10°C° 0 mm 2 m/s 712 mmHg 78%
    07:00 +13°C° 0 mm 2 m/s 712 mmHg 72%
    08:00 +14°C° 0 mm 2 m/s 712 mmHg 65%
    09:00 +17°C° 0 mm 2 m/s 712 mmHg 59%
    10:00 +19°C° 0 mm 3 m/s 711 mmHg 53%
    11:00 +21°C° 0 mm 3 m/s 711 mmHg 47%
    12:00 +23°C° 0 mm 4 m/s 711 mmHg 41%
    13:00 +25°C° 0 mm 4 m/s 710 mmHg 35%
    14:00 +27°C° 0 mm 4 m/s 710 mmHg 28%
    15:00 +26°C° 0 mm 4 m/s 709 mmHg 29%
    16:00 +26°C° 0 mm 3 m/s 709 mmHg 30%
    17:00 +25°C° 0 mm 3 m/s 709 mmHg 31%
    18:00 +23°C° 0 mm 2 m/s 709 mmHg 35%
    19:00 +20°C° 0 mm 2 m/s 709 mmHg 39%
    20:00 +19°C° 0 mm 1 m/s 709 mmHg 43%
    21:00 +17°C° 0 mm 2 m/s 709 mmHg 44%
    22:00 +17°C° 0 mm 3 m/s 709 mmHg 45%
    23:00 +15°C° 0 mm 4 m/s 709 mmHg 46%

    Mâine, 7 Aprilie, Marţi

    Timp Temperatura Precipitaţii Vânt Presiune Umiditate
    00:00 +14°C° 0 mm 4 m/s 710 mmHg 53%
    01:00 +13°C° 0 mm 4 m/s 710 mmHg 61%
    02:00 +12°C° 0 mm 4 m/s 710 mmHg 69%
    03:00 +11°C° 0 mm 4 m/s 710 mmHg 71%
    04:00 +10°C° 0 mm 4 m/s 711 mmHg 73%
    05:00 +10°C° 0 mm 3 m/s 711 mmHg 75%
    06:00 +11°C° 0 mm 3 m/s 712 mmHg 71%
    07:00 +12°C° 0 mm 3 m/s 712 mmHg 68%
    08:00 +13°C° 0 mm 3 m/s 712 mmHg 65%
    09:00 +15°C° 0 mm 2 m/s 712 mmHg 59%
    10:00 +17°C° 0 mm 2 m/s 712 mmHg 52%
    11:00 +19°C° 0 mm 1 m/s 712 mmHg 46%
    12:00 +19°C° 0 mm 2 m/s 712 mmHg 42%
    13:00 +20°C° 0 mm 3 m/s 712 mmHg 39%
    14:00 +22°C° 0 mm 4 m/s 711 mmHg 35%
    15:00 +21°C° 0 mm 4 m/s 711 mmHg 36%
    16:00 +21°C° 0 mm 3 m/s 711 mmHg 38%
    17:00 +20°C° 0 mm 3 m/s 711 mmHg 39%
    18:00 +19°C° 0 mm 2 m/s 711 mmHg 43%
    19:00 +17°C° 0 mm 2 m/s 711 mmHg 47%
    20:00 +15°C° 0 mm 1 m/s 711 mmHg 50%
    21:00 +14°C° 0 mm 1 m/s 712 mmHg 50%
    22:00 +14°C° 0 mm 1 m/s 712 mmHg 50%
    23:00 +13°C° 0 mm 2 m/s 712 mmHg 50%

    Poimâine, 8 Aprilie, Miercuri

    Timp Temperatura Precipitaţii Vânt Presiune Umiditate
    00:00 +12°C° 0.1 mm 2 m/s 712 mmHg 52%
    01:00 +12°C° 0.1 mm 2 m/s 712 mmHg 55%
    02:00 +11°C° 0.1 mm 3 m/s 713 mmHg 57%
    03:00 +9°C° 0 mm 5 m/s 714 mmHg 58%
    04:00 +6°C° 0 mm 7 m/s 715 mmHg 59%
    05:00 +5°C° 0 mm 10 m/s 716 mmHg 60%
    06:00 +5°C° 0.2 mm 9 m/s 717 mmHg 57%
    07:00 +5°C° 0.2 mm 8 m/s 719 mmHg 54%
    08:00 +5°C° 0.2 mm 7 m/s 720 mmHg 51%
    09:00 +5°C° 0 mm 8 m/s 720 mmHg 44%
    10:00 +6°C° 0 mm 9 m/s 720 mmHg 38%
    11:00 +6°C° 0 mm 10 m/s 720 mmHg 32%
    12:00 +7°C° 0 mm 10 m/s 720 mmHg 29%
    13:00 +7°C° 0 mm 10 m/s 720 mmHg 27%
    14:00 +8°C° 0 mm 10 m/s 720 mmHg 25%
    15:00 +7°C° 0 mm 10 m/s 720 mmHg 25%
    16:00 +7°C° 0 mm 10 m/s 719 mmHg 26%
    17:00 +6°C° 0 mm 10 m/s 719 mmHg 27%
    18:00 +5°C° 0 mm 8 m/s 719 mmHg 31%
    19:00 +4°C° 0 mm 6 m/s 720 mmHg 36%
    20:00 +3°C° 0 mm 5 m/s 720 mmHg 41%
    21:00 +2°C° 0 mm 5 m/s 720 mmHg 42%
    22:00 +2°C° 0 mm 5 m/s 720 mmHg 43%
    23:00 +1°C° 0 mm 5 m/s 720 mmHg 43%

    9 Aprilie, Joi

    Timp Temperatura Precipitaţii Vânt Presiune Umiditate
    00:00 +1°C° 0 mm 6 m/s 720 mmHg 43%
    01:00 -1°C° 0 mm 6 m/s 720 mmHg 42%
    02:00 -1°C° 0 mm 7 m/s 720 mmHg 41%
    03:00 -2°C° 0 mm 7 m/s 720 mmHg 43%
    04:00 -2°C° 0 mm 6 m/s 720 mmHg 45%
    05:00 -3°C° 0 mm 6 m/s 720 mmHg 47%
    06:00 -2°C° 0 mm 7 m/s 720 mmHg 45%
    07:00 -3°C° 0 mm 9 m/s 720 mmHg 42%
    08:00 -2°C° 0 mm 10 m/s 720 mmHg 40%
    09:00 0°C° 0 mm 10 m/s 720 mmHg 39%
    10:00 0°C° 0 mm 10 m/s 721 mmHg 39%
    11:00 +1°C° 0 mm 10 m/s 721 mmHg 39%
    12:00 +1°C° 0 mm 10 m/s 721 mmHg 37%
    13:00 +2°C° 0 mm 9 m/s 721 mmHg 34%
    14:00 +2°C° 0 mm 9 m/s 721 mmHg 32%
    15:00 +2°C° 0 mm 8 m/s 721 mmHg 33%
    16:00 +3°C° 0 mm 7 m/s 721 mmHg 33%
    17:00 +3°C° 0 mm 7 m/s 721 mmHg 33%
    18:00 +2°C° 0 mm 5 m/s 721 mmHg 38%
    19:00 +1°C° 0 mm 4 m/s 721 mmHg 42%
    20:00 +1°C° 0 mm 3 m/s 721 mmHg 47%
    21:00 0°C° 0 mm 3 m/s 721 mmHg 48%
    22:00 +1°C° 0 mm 2 m/s 721 mmHg 50%
    23:00 -1°C° 0 mm 2 m/s 721 mmHg 51%

    10 Aprilie, Vineri

    Timp Temperatura Precipitaţii Vânt Presiune Umiditate
    00:00 -1°C° 0 mm 2 m/s 721 mmHg 53%
    01:00 -1°C° 0 mm 2 m/s 721 mmHg 54%
    02:00 -2°C° 0 mm 2 m/s 721 mmHg 55%
    03:00 -2°C° 0 mm 2 m/s 721 mmHg 55%
    04:00 -2°C° 0 mm 2 m/s 721 mmHg 55%
    05:00 -2°C° 0 mm 2 m/s 721 mmHg 55%
    06:00 +1°C° 0 mm 2 m/s 721 mmHg 49%
    07:00 +2°C° 0 mm 2 m/s 721 mmHg 43%
    08:00 +4°C° 0 mm 2 m/s 721 mmHg 38%
    09:00 +4°C° 0 mm 3 m/s 720 mmHg 34%
    10:00 +7°C° 0 mm 3 m/s 720 mmHg 31%
    11:00 +8°C° 0 mm 3 m/s 720 mmHg 27%
    12:00 +9°C° 0 mm 3 m/s 719 mmHg 26%
    13:00 +10°C° 0 mm 3 m/s 719 mmHg 26%
    14:00 +10°C° 0 mm 4 m/s 718 mmHg 25%
    15:00 +11°C° 0 mm 4 m/s 718 mmHg 26%
    16:00 +11°C° 0 mm 3 m/s 718 mmHg 27%
    17:00 +11°C° 0 mm 3 m/s 718 mmHg 28%
    18:00 +9°C° 0 mm 2 m/s 718 mmHg 33%
    19:00 +8°C° 0 mm 1 m/s 718 mmHg 39%
    20:00 +5°C° 0 mm 0 m/s 718 mmHg 44%
    21:00 +6°C° 0 mm 1 m/s 718 mmHg 43%
    22:00 +6°C° 0 mm 2 m/s 718 mmHg 42%
    23:00 +6°C° 0 mm 2 m/s 718 mmHg 40%

    11 Aprilie, Sâmbătă

    Timp Temperatura Precipitaţii Vânt Presiune Umiditate
    00:00 +5°C° 0 mm 3 m/s 718 mmHg 43%
    01:00 +5°C° 0 mm 3 m/s 718 mmHg 46%
    02:00 +5°C° 0 mm 3 m/s 717 mmHg 48%
    03:00 +4°C° 0 mm 3 m/s 718 mmHg 54%
    04:00 +4°C° 0 mm 4 m/s 718 mmHg 59%
    05:00 +4°C° 0 mm 4 m/s 718 mmHg 65%
    06:00 +4°C° 0 mm 4 m/s 718 mmHg 65%
    07:00 +5°C° 0 mm 5 m/s 719 mmHg 65%
    08:00 +5°C° 0 mm 5 m/s 719 mmHg 64%
    09:00 +6°C° 0 mm 5 m/s 719 mmHg 62%
    10:00 +7°C° 0 mm 6 m/s 720 mmHg 60%
    11:00 +8°C° 0 mm 6 m/s 720 mmHg 58%
    12:00 +8°C° 0 mm 6 m/s 720 mmHg 57%
    13:00 +8°C° 0 mm 5 m/s 720 mmHg 56%
    14:00 +7°C° 0 mm 5 m/s 720 mmHg 56%
    15:00 +7°C° 0 mm 5 m/s 720 mmHg 55%
    16:00 +7°C° 0 mm 5 m/s 721 mmHg 55%
    17:00 +7°C° 0 mm 6 m/s 721 mmHg 54%
    18:00 +6°C° 0 mm 5 m/s 722 mmHg 54%
    19:00 +6°C° 0 mm 4 m/s 723 mmHg 54%
    20:00 +5°C° 0 mm 4 m/s 723 mmHg 54%
    21:00 +4°C° 0 mm 4 m/s 724 mmHg 51%
    22:00 +4°C° 0 mm 4 m/s 725 mmHg 48%
    23:00 +2°C° 0 mm 5 m/s 725 mmHg 45%
    Arată mai mult